Year,Month,Day,Hour,Minute,Value (Times are PST for windgust in km/hr)
2018,12,19,00,00,3.20
2018,12,19,00,02,1.60
2018,12,19,00,03,6.40
2018,12,19,00,04,6.40
2018,12,19,00,05,6.40
2018,12,19,00,06,3.20
2018,12,19,00,08,1.60
2018,12,19,00,11,6.40
2018,12,19,00,12,4.80
2018,12,19,00,31,4.80
2018,12,19,00,48,6.40
2018,12,19,00,49,6.40
2018,12,19,00,50,4.80
2018,12,19,00,51,4.80
2018,12,19,00,52,1.60
2018,12,19,01,03,4.80
2018,12,19,01,19,3.20
2018,12,19,01,20,4.80
2018,12,19,01,21,4.80
2018,12,19,01,22,3.20
2018,12,19,01,24,3.20
2018,12,19,01,28,3.20
2018,12,19,01,30,3.20
2018,12,19,01,31,6.40
2018,12,19,01,32,4.80
2018,12,19,01,33,4.80
2018,12,19,01,35,6.40
2018,12,19,01,37,8.10
2018,12,19,01,38,1.60
2018,12,19,01,40,3.20
2018,12,19,01,41,6.40
2018,12,19,01,44,4.80
2018,12,19,01,45,1.60
2018,12,19,01,54,1.60
2018,12,19,02,04,3.20
2018,12,19,02,05,4.80
2018,12,19,02,06,4.80
2018,12,19,02,12,1.60
2018,12,19,02,13,1.60
2018,12,19,02,32,3.20
2018,12,19,02,33,3.20
2018,12,19,02,34,1.60
2018,12,19,02,54,6.40
2018,12,19,02,59,6.40
2018,12,19,03,00,3.20
2018,12,19,03,03,4.80
2018,12,19,03,04,4.80
2018,12,19,03,05,3.20
2018,12,19,03,09,3.20
2018,12,19,03,10,6.40
2018,12,19,03,11,6.40
2018,12,19,03,12,4.80
2018,12,19,03,13,4.80
2018,12,19,03,14,4.80
2018,12,19,03,15,1.60
2018,12,19,03,22,1.60
2018,12,19,03,23,3.20
2018,12,19,03,28,3.20
2018,12,19,03,29,1.60
2018,12,19,04,05,1.60
2018,12,19,04,26,1.60
2018,12,19,04,39,8.10
2018,12,19,04,40,8.10
2018,12,19,04,41,1.60
2018,12,19,04,43,6.40
2018,12,19,04,44,8.10
2018,12,19,04,45,3.20
2018,12,19,04,46,4.80
2018,12,19,04,47,6.40
2018,12,19,04,48,11.30
2018,12,19,04,49,11.30
2018,12,19,04,50,9.60
2018,12,19,04,51,8.10
2018,12,19,04,52,4.80
2018,12,19,04,56,8.10
2018,12,19,04,57,3.20
2018,12,19,04,59,1.60
2018,12,19,05,00,8.10
2018,12,19,05,01,4.80
2018,12,19,05,04,3.20
2018,12,19,05,05,4.80
2018,12,19,05,18,4.80
2018,12,19,05,19,6.40
2018,12,19,05,20,6.40
2018,12,19,05,21,4.80
2018,12,19,05,28,4.80
2018,12,19,05,29,9.60
2018,12,19,05,30,8.10
2018,12,19,05,31,6.40
2018,12,19,05,32,4.80
2018,12,19,05,33,1.60
2018,12,19,05,34,1.60
2018,12,19,05,46,6.40
2018,12,19,05,47,6.40
2018,12,19,05,48,1.60
2018,12,19,05,50,8.10
2018,12,19,05,51,8.10
2018,12,19,05,52,4.80
2018,12,19,05,53,3.20
2018,12,19,05,55,6.40
2018,12,19,05,56,6.40
2018,12,19,05,57,4.80
2018,12,19,06,04,1.60
2018,12,19,06,06,3.20
2018,12,19,06,07,9.60
2018,12,19,06,08,9.60
2018,12,19,06,09,11.30
2018,12,19,06,10,1.60
2018,12,19,06,16,6.40
2018,12,19,06,17,6.40
2018,12,19,06,18,4.80
2018,12,19,06,19,1.60
2018,12,19,06,21,4.80
2018,12,19,06,22,8.10
2018,12,19,06,23,4.80
2018,12,19,06,26,8.10
2018,12,19,06,27,8.10
2018,12,19,06,28,6.40
2018,12,19,06,30,4.80
2018,12,19,06,31,4.80
2018,12,19,06,32,8.10
2018,12,19,06,33,9.60
2018,12,19,06,34,8.10
2018,12,19,06,35,6.40
2018,12,19,06,36,6.40
2018,12,19,06,37,6.40
2018,12,19,06,38,8.10
2018,12,19,06,39,6.40
2018,12,19,06,40,6.40
2018,12,19,06,41,4.80
2018,12,19,06,42,4.80
2018,12,19,06,43,6.40
2018,12,19,06,44,4.80
2018,12,19,06,45,3.20
2018,12,19,06,46,4.80
2018,12,19,06,47,4.80
2018,12,19,06,48,4.80
2018,12,19,06,49,4.80
2018,12,19,06,50,1.60
2018,12,19,06,58,1.60
2018,12,19,06,59,4.80
2018,12,19,07,00,4.80
2018,12,19,07,01,4.80
2018,12,19,07,02,8.10
2018,12,19,07,03,8.10
2018,12,19,07,04,9.60
2018,12,19,07,05,8.10
2018,12,19,07,07,3.20
2018,12,19,07,43,1.60
2018,12,19,07,48,1.60
2018,12,19,07,49,1.60
2018,12,19,07,57,4.80
2018,12,19,07,58,9.60
2018,12,19,07,59,8.10
2018,12,19,08,00,8.10
2018,12,19,08,01,3.20
2018,12,19,08,02,6.40
2018,12,19,08,03,4.80
2018,12,19,08,06,1.60
2018,12,19,08,09,4.80
2018,12,19,08,10,4.80
2018,12,19,08,11,4.80
2018,12,19,08,12,1.60
2018,12,19,08,13,1.60
2018,12,19,08,16,4.80
2018,12,19,08,17,6.40
2018,12,19,08,18,4.80
2018,12,19,08,19,3.20
2018,12,19,08,22,6.40
2018,12,19,08,23,4.80
2018,12,19,08,28,4.80
2018,12,19,08,29,6.40
2018,12,19,08,30,1.60
2018,12,19,08,32,1.60
2018,12,19,08,37,1.60
2018,12,19,08,38,3.20
2018,12,19,08,39,4.80
2018,12,19,08,40,6.40
2018,12,19,08,41,4.80
2018,12,19,08,42,4.80
2018,12,19,08,43,4.80
2018,12,19,08,44,4.80
2018,12,19,08,45,6.40
2018,12,19,08,46,4.80
2018,12,19,09,00,4.80
2018,12,19,09,01,4.80
2018,12,19,09,02,1.60
2018,12,19,09,04,1.60
2018,12,19,09,19,6.40
2018,12,19,09,20,4.80
2018,12,19,09,21,1.60
2018,12,19,09,36,1.60
2018,12,19,09,37,1.60
2018,12,19,09,38,9.60
2018,12,19,09,39,4.80
2018,12,19,09,41,1.60
2018,12,19,09,42,6.40
2018,12,19,09,43,4.80
2018,12,19,09,44,9.60
2018,12,19,09,45,8.10
2018,12,19,09,46,11.30
2018,12,19,09,47,9.60
2018,12,19,09,48,11.30
2018,12,19,09,49,8.10
2018,12,19,09,50,9.60
2018,12,19,09,51,4.80
2018,12,19,09,52,3.20
2018,12,19,09,53,4.80
2018,12,19,09,54,3.20
2018,12,19,09,55,1.60
2018,12,19,09,58,6.40
2018,12,19,09,59,4.80
2018,12,19,10,00,4.80
2018,12,19,10,01,6.40
2018,12,19,10,02,6.40
2018,12,19,10,03,4.80
2018,12,19,10,04,3.20
2018,12,19,10,07,1.60
2018,12,19,10,10,3.20
2018,12,19,10,11,4.80
2018,12,19,10,12,4.80
2018,12,19,10,13,3.20
2018,12,19,10,15,1.60
2018,12,19,10,16,6.40
2018,12,19,10,17,6.40
2018,12,19,10,18,6.40
2018,12,19,10,19,3.20
2018,12,19,10,21,8.10
2018,12,19,10,22,6.40
2018,12,19,10,23,6.40
2018,12,19,10,24,4.80
2018,12,19,10,25,4.80
2018,12,19,10,26,1.60
2018,12,19,10,28,8.10
2018,12,19,10,29,14.50
2018,12,19,10,30,11.30
2018,12,19,10,31,8.10
2018,12,19,10,32,3.20
2018,12,19,10,34,6.40
2018,12,19,10,35,9.60
2018,12,19,10,36,6.40
2018,12,19,10,37,3.20
2018,12,19,10,38,6.40
2018,12,19,10,39,4.80
2018,12,19,10,42,8.10
2018,12,19,10,43,8.10
2018,12,19,10,44,8.10
2018,12,19,10,48,1.60
2018,12,19,10,50,8.10
2018,12,19,10,51,9.60
2018,12,19,10,52,8.10
2018,12,19,10,53,9.60
2018,12,19,10,54,8.10
2018,12,19,10,55,3.20
2018,12,19,10,56,3.20
2018,12,19,10,57,11.30
2018,12,19,10,58,12.90
2018,12,19,10,59,9.60
2018,12,19,11,00,4.80
2018,12,19,11,01,6.40
2018,12,19,11,02,9.60
2018,12,19,11,03,8.10
2018,12,19,11,04,4.80
2018,12,19,11,05,6.40
2018,12,19,11,06,8.10
2018,12,19,11,07,6.40
2018,12,19,11,08,4.80
2018,12,19,11,09,4.80
2018,12,19,11,11,8.10
2018,12,19,11,13,1.60
2018,12,19,11,14,1.60
2018,12,19,11,15,8.10
2018,12,19,11,16,11.30
2018,12,19,11,17,12.90
2018,12,19,11,18,6.40
2018,12,19,11,19,11.30
2018,12,19,11,20,8.10
2018,12,19,11,21,4.80
2018,12,19,11,22,4.80
2018,12,19,11,23,4.80
2018,12,19,11,24,6.40
2018,12,19,11,27,6.40
2018,12,19,11,28,9.60
2018,12,19,11,29,9.60
2018,12,19,11,31,19.30
2018,12,19,11,32,20.90
2018,12,19,11,33,12.90
2018,12,19,11,34,12.90
2018,12,19,11,35,14.50
2018,12,19,11,36,8.10
2018,12,19,11,37,4.80
2018,12,19,11,38,6.40
2018,12,19,11,39,4.80
2018,12,19,11,40,6.40
2018,12,19,11,41,11.30
2018,12,19,11,42,9.60
2018,12,19,11,43,8.10
2018,12,19,11,44,6.40
2018,12,19,11,45,8.10
2018,12,19,11,46,8.10
2018,12,19,11,47,4.80
2018,12,19,11,48,3.20
2018,12,19,11,49,3.20
2018,12,19,11,50,3.20
2018,12,19,11,51,3.20
2018,12,19,11,52,3.20
2018,12,19,11,53,6.40
2018,12,19,11,54,4.80
2018,12,19,11,55,4.80
2018,12,19,11,56,9.60
2018,12,19,11,57,9.60
2018,12,19,11,58,16.10
2018,12,19,11,59,16.10
2018,12,19,12,00,8.10
2018,12,19,12,01,4.80
2018,12,19,12,02,6.40
2018,12,19,12,03,11.30
2018,12,19,12,04,11.30
2018,12,19,12,05,14.50
2018,12,19,12,06,17.70
2018,12,19,12,07,17.70
2018,12,19,12,08,17.70
2018,12,19,12,09,14.50
2018,12,19,12,10,9.60
2018,12,19,12,11,17.70
2018,12,19,12,12,22.50
2018,12,19,12,13,17.70
2018,12,19,12,14,19.30
2018,12,19,12,15,17.70
2018,12,19,12,16,12.90
2018,12,19,12,17,14.50
2018,12,19,12,18,11.30
2018,12,19,12,19,8.10
2018,12,19,12,20,11.30
2018,12,19,12,21,6.40
2018,12,19,12,22,9.60
2018,12,19,12,23,3.20
2018,12,19,12,28,1.60
2018,12,19,12,30,8.10
2018,12,19,12,32,4.80
2018,12,19,12,37,1.60
2018,12,19,12,40,8.10
2018,12,19,12,41,12.90
2018,12,19,12,42,9.60
2018,12,19,12,43,8.10
2018,12,19,12,44,6.40
2018,12,19,12,45,8.10
2018,12,19,12,46,11.30
2018,12,19,12,47,8.10
2018,12,19,12,48,4.80
2018,12,19,12,54,8.10
2018,12,19,12,55,3.20
2018,12,19,12,57,11.30
2018,12,19,12,58,14.50
2018,12,19,12,59,4.80
2018,12,19,13,00,1.60
2018,12,19,13,08,1.60
2018,12,19,13,21,11.30
2018,12,19,13,22,11.30
2018,12,19,13,23,9.60
2018,12,19,13,24,4.80
2018,12,19,13,25,8.10
2018,12,19,13,26,4.80
2018,12,19,13,27,8.10
2018,12,19,13,28,1.60
2018,12,19,13,31,8.10
2018,12,19,13,32,8.10
2018,12,19,13,33,6.40
2018,12,19,13,34,6.40
2018,12,19,13,35,6.40
2018,12,19,13,36,4.80
2018,12,19,13,47,8.10
2018,12,19,13,48,8.10
2018,12,19,13,49,6.40
2018,12,19,13,50,9.60
2018,12,19,13,52,6.40
2018,12,19,13,53,4.80
2018,12,19,13,54,11.30
2018,12,19,13,55,1.60
2018,12,19,13,56,8.10
2018,12,19,13,57,8.10
2018,12,19,13,58,9.60
2018,12,19,13,59,6.40
2018,12,19,14,02,11.30
2018,12,19,14,03,9.60
2018,12,19,14,04,11.30
2018,12,19,14,05,9.60
2018,12,19,14,06,9.60
2018,12,19,14,07,9.60
2018,12,19,14,08,4.80
2018,12,19,14,10,9.60
2018,12,19,14,11,9.60
2018,12,19,14,12,6.40
2018,12,19,14,14,6.40
2018,12,19,14,16,11.30
2018,12,19,14,17,8.10
2018,12,19,14,19,11.30
2018,12,19,14,20,9.60
2018,12,19,14,21,8.10
2018,12,19,14,22,9.60
2018,12,19,14,23,8.10
2018,12,19,15,01,1.60
2018,12,19,15,09,1.60
2018,12,19,15,15,3.20
2018,12,19,15,22,1.60
2018,12,19,15,43,8.10
2018,12,19,15,44,9.60
2018,12,19,15,58,1.60
2018,12,19,16,10,4.80
2018,12,19,16,11,9.60
2018,12,19,16,12,8.10
2018,12,19,16,13,3.20
2018,12,19,16,14,9.60
2018,12,19,16,15,4.80
2018,12,19,16,16,1.60
2018,12,19,16,18,6.40
2018,12,19,16,19,8.10
2018,12,19,16,20,4.80
2018,12,19,16,21,9.60
2018,12,19,16,22,11.30
2018,12,19,16,23,8.10
2018,12,19,16,26,8.10
2018,12,19,16,27,3.20
2018,12,19,16,29,4.80
2018,12,19,16,30,3.20
2018,12,19,16,31,8.10
2018,12,19,16,32,6.40
2018,12,19,16,33,1.60
2018,12,19,16,41,6.40
2018,12,19,16,42,1.60
2018,12,19,16,44,3.20
2018,12,19,16,45,8.10
2018,12,19,16,46,4.80
2018,12,19,16,47,4.80
2018,12,19,16,48,1.60
2018,12,19,17,56,1.60
2018,12,19,18,00,4.80
2018,12,19,18,01,9.60
2018,12,19,18,02,12.90
2018,12,19,18,03,12.90
2018,12,19,18,04,8.10
2018,12,19,18,05,12.90
2018,12,19,18,06,9.60
2018,12,19,18,07,8.10
2018,12,19,18,08,11.30
2018,12,19,18,09,11.30
2018,12,19,18,10,14.50
2018,12,19,18,11,17.70
2018,12,19,18,12,17.70
2018,12,19,18,13,16.10
2018,12,19,18,14,11.30
2018,12,19,18,15,11.30
2018,12,19,18,16,8.10
2018,12,19,18,17,3.20
2018,12,19,18,18,8.10
2018,12,19,18,19,9.60
2018,12,19,18,20,9.60
2018,12,19,18,21,4.80
2018,12,19,18,24,4.80
2018,12,19,18,25,4.80
2018,12,19,18,29,4.80
2018,12,19,18,30,4.80
2018,12,19,18,34,6.40
2018,12,19,18,46,6.40
2018,12,19,18,47,4.80
2018,12,19,18,48,8.10
2018,12,19,18,49,11.30
2018,12,19,18,50,12.90
2018,12,19,18,51,8.10
2018,12,19,18,52,8.10
2018,12,19,18,53,9.60
2018,12,19,18,54,6.40
2018,12,19,18,55,3.20
2018,12,19,18,58,9.60
2018,12,19,18,59,8.10
2018,12,19,19,00,8.10
2018,12,19,19,01,6.40
2018,12,19,19,02,4.80
2018,12,19,19,03,6.40
2018,12,19,19,04,6.40
2018,12,19,19,05,8.10
2018,12,19,19,06,4.80
2018,12,19,19,08,8.10
2018,12,19,19,09,8.10
2018,12,19,19,10,9.60
2018,12,19,19,11,4.80
2018,12,19,19,23,8.10
2018,12,19,19,24,9.60
2018,12,19,19,25,8.10
2018,12,19,19,26,9.60
2018,12,19,19,27,9.60
2018,12,19,19,28,9.60
2018,12,19,19,29,8.10
2018,12,19,19,30,8.10
2018,12,19,19,31,4.80
2018,12,19,19,38,6.40
2018,12,19,19,39,3.20
2018,12,19,19,42,1.60
2018,12,19,19,51,9.60
2018,12,19,19,52,8.10
2018,12,19,19,53,6.40
2018,12,19,19,56,1.60
2018,12,19,20,16,1.60
2018,12,19,20,19,1.60
2018,12,19,20,45,1.60
2018,12,19,20,46,6.40
2018,12,19,20,47,4.80
2018,12,19,20,52,1.60
2018,12,19,20,58,8.10
2018,12,19,20,59,8.10
2018,12,19,21,01,4.80
2018,12,19,21,02,6.40
2018,12,19,21,03,4.80
2018,12,19,21,08,1.60
2018,12,19,21,14,1.60
2018,12,19,21,18,4.80
2018,12,19,21,19,8.10
2018,12,19,21,20,4.80
2018,12,19,21,23,4.80
2018,12,19,21,24,8.10
2018,12,19,21,25,8.10
2018,12,19,21,26,9.60
2018,12,19,21,27,9.60
2018,12,19,21,28,8.10
2018,12,19,21,29,11.30
2018,12,19,21,30,11.30
2018,12,19,21,31,16.10
2018,12,19,21,32,14.50
2018,12,19,21,33,11.30
2018,12,19,21,34,12.90
2018,12,19,21,35,12.90
2018,12,19,21,36,8.10
2018,12,19,21,37,14.50
2018,12,19,21,38,11.30
2018,12,19,21,39,11.30
2018,12,19,21,40,12.90
2018,12,19,21,41,11.30
2018,12,19,21,42,8.10
2018,12,19,21,43,11.30
2018,12,19,21,44,11.30
2018,12,19,21,45,12.90
2018,12,19,21,46,11.30
2018,12,19,21,47,12.90
2018,12,19,21,48,14.50
2018,12,19,21,49,16.10
2018,12,19,21,50,14.50
2018,12,19,21,51,16.10
2018,12,19,21,52,11.30
2018,12,19,21,53,14.50
2018,12,19,21,54,11.30
2018,12,19,21,55,9.60
2018,12,19,21,56,14.50
2018,12,19,21,57,9.60
2018,12,19,21,58,11.30
2018,12,19,21,59,8.10
2018,12,19,22,00,4.80
2018,12,19,22,01,12.90
2018,12,19,22,02,12.90
2018,12,19,22,03,12.90
2018,12,19,22,04,12.90
2018,12,19,22,06,8.10
2018,12,19,22,07,11.30
2018,12,19,22,08,12.90
2018,12,19,22,09,12.90
2018,12,19,22,10,9.60
2018,12,19,22,11,11.30
2018,12,19,22,12,14.50
2018,12,19,22,13,11.30
2018,12,19,22,14,11.30
2018,12,19,22,15,12.90
2018,12,19,22,16,12.90
2018,12,19,22,17,17.70
2018,12,19,22,18,12.90
2018,12,19,22,19,12.90
2018,12,19,22,20,12.90
2018,12,19,22,21,14.50
2018,12,19,22,22,17.70
2018,12,19,22,23,16.10
2018,12,19,22,24,16.10
2018,12,19,22,25,17.70
2018,12,19,22,26,14.50
2018,12,19,22,27,22.50
2018,12,19,22,28,22.50
2018,12,19,22,29,24.20
2018,12,19,22,30,19.30
2018,12,19,22,31,14.50
2018,12,19,22,32,12.90
2018,12,19,22,33,14.50
2018,12,19,22,34,19.30
2018,12,19,22,35,17.70
2018,12,19,22,36,17.70
2018,12,19,22,37,22.50
2018,12,19,22,38,19.30
2018,12,19,22,39,16.10
2018,12,19,22,40,20.90
2018,12,19,22,41,17.70
2018,12,19,22,42,14.50
2018,12,19,22,43,14.50
2018,12,19,22,44,17.70
2018,12,19,22,45,20.90
2018,12,19,22,46,17.70
2018,12,19,22,47,16.10
2018,12,19,22,48,17.70
2018,12,19,22,49,17.70
2018,12,19,22,50,12.90
2018,12,19,22,51,14.50
2018,12,19,22,52,16.10
2018,12,19,22,53,14.50
2018,12,19,22,54,16.10
2018,12,19,22,55,14.50
2018,12,19,22,56,24.20
2018,12,19,22,57,17.70
2018,12,19,22,58,16.10
2018,12,19,22,59,17.70
2018,12,19,23,00,12.90
2018,12,19,23,01,12.90
2018,12,19,23,02,9.60
2018,12,19,23,03,14.50
2018,12,19,23,04,24.20
2018,12,19,23,05,14.50
2018,12,19,23,06,8.10
2018,12,19,23,07,12.90
2018,12,19,23,08,17.70
2018,12,19,23,09,11.30
2018,12,19,23,10,11.30
2018,12,19,23,11,17.70
2018,12,19,23,12,12.90
2018,12,19,23,13,16.10
2018,12,19,23,14,14.50
2018,12,19,23,15,9.60
2018,12,19,23,16,11.30
2018,12,19,23,17,9.60
2018,12,19,23,18,8.10
2018,12,19,23,19,11.30
2018,12,19,23,20,11.30
2018,12,19,23,21,14.50
2018,12,19,23,22,12.90
2018,12,19,23,23,8.10
2018,12,19,23,24,12.90
2018,12,19,23,25,12.90
2018,12,19,23,26,11.30
2018,12,19,23,27,17.70
2018,12,19,23,28,16.10
2018,12,19,23,29,20.90
2018,12,19,23,30,17.70
2018,12,19,23,31,19.30
2018,12,19,23,32,16.10
2018,12,19,23,33,16.10
2018,12,19,23,34,17.70
2018,12,19,23,35,16.10
2018,12,19,23,36,14.50
2018,12,19,23,37,11.30
2018,12,19,23,38,12.90
2018,12,19,23,39,12.90
2018,12,19,23,40,20.90
2018,12,19,23,41,17.70
2018,12,19,23,42,19.30
2018,12,19,23,43,16.10
2018,12,19,23,44,17.70
2018,12,19,23,45,14.50
2018,12,19,23,46,12.90
2018,12,19,23,47,16.10
2018,12,19,23,48,12.90
2018,12,19,23,49,20.90
2018,12,19,23,50,14.50
2018,12,19,23,51,16.10
2018,12,19,23,52,17.70
2018,12,19,23,53,16.10
2018,12,19,23,54,11.30
2018,12,19,23,55,11.30
2018,12,19,23,56,14.50
2018,12,19,23,57,16.10
2018,12,19,23,58,22.50
2018,12,19,23,59,24.20
